Miscellaneous Local Product
Issued by NWS North Platte, NE

Home | Current Version | Previous Version | Graphics & Text | Print | Product List | Glossary On
Versions: 1 2 3 4 5 6 7 8 9 10 11 12 13 14 15 16 17 18 19 20 21 22 23 24 25 26 27 28 29 30 31 32 33 34 35 36 37 38 39 40 41 42 43 44 45 46 47 48 49 50
000
AXUS43 KLBF 271510
MISLBF


WESTERN AND NORTH CENTRAL NEBRASKA HOURLY WEATHER ROUNDUP
NATIONAL WEATHER SERVICE NORTH PLATTE NE
1000 AM CDT FRI MAY 27 2016

NOTE: "FAIR" INDICATES FEW OR NO CLOUDS BELOW 12,000 FEET WITH NO
SIGNIFICANT WEATHER AND/OR OBSTRUCTIONS TO VISIBILITY.

NOTE: STATIONS NOT REPORTING VARIABLES SUCH AS SKY/WEATHER OR
PRESSURE ARE PROVIDED BY RAWS AND APRS NETWORKS AND ARE NOT UNDER
NATIONAL WEATHER SERVICE QUALITY CONTROL.

...OBSERVATIONS IN AND NEAR THE EASTERN PANHANDLE OF NEBRASKA...

CITY           SKY/WX    TMP DP  RH WIND       PRES   REMARKS
PINE RIDGE     CLOUDY    57  43  59 CALM      29.85R
CHADRON        PTSUNNY   57  44  62 CALM      29.86S
ALLIANCE       RAIN      50  49  96 NE9       29.87R FOG
SIDNEY         RAIN      51  50  96 N13       29.85R FOG
CRESCENT LAKE    N/A     52  52 100 NE6         N/A
BIG SPRINGS      N/A     56  54  94 NE6         N/A
$$

...OBSERVATIONS IN NORTHERN NEBRASKA AND FAR SOUTHERN SOUTH DAKOTA...

CITY           SKY/WX    TMP DP  RH WIND       PRES   REMARKS
WINNER         LGT RAIN  59  54  83 SW12      29.84R
VALENTINE      LGT RAIN  56  53  90 NW6       29.83S
THEDFORD       CLOUDY    59  54  82 N6        29.83R
AINSWORTH      CLOUDY    57  53  85 N10       29.83R
O`NEILL        CLOUDY    65  58  78 CALM      29.78F
ORD            MOSUNNY   66  54  65 NW5       29.75F
BROKEN BOW     CLOUDY    64  52  64 N3        29.78F
BUTTE            N/A     58  56  94 SE3         N/A
CHAMBERS         N/A     72  60  66 E3          N/A
EWING            N/A     67  58  73 CALM        N/A
$$

...OBSERVATIONS IN SOUTHWEST NEBRASKA AND FAR NORTHEAST COLORADO...

CITY           SKY/WX    TMP DP  RH WIND       PRES   REMARKS
IMPERIAL       CLOUDY    57  53  86 NE9       29.78R
OGALLALA       CLOUDY    56  53  88 N10       29.81R
NORTH PLATTE   CLOUDY    60  54  80 NW3       29.80R
MCCOOK         CLOUDY    59  54  83 E9        29.76R
LEXINGTON      CLOUDY    60  56  85 NE9       29.78S
PAXTON           N/A     56  54  93 NE3         N/A
STAPLETON        N/A     60  56  86 CALM        N/A
GOTHENBURG       N/A     58  53  82 NE5         N/A
CALLAWAY         N/A     58  56  92 NE6         N/A
$$

...OBSERVATIONS IN CENTRAL LINCOLN COUNTY AREA...

CITY           SKY/WX    TMP DP  RH WIND       PRES   REMARKS
N.P. AIRPORT   CLOUDY    60  54  80 NW3       29.80R
N.P. DOWNTOWN    N/A     59  55  85 CALM        N/A
N.P. HILLCREST   N/A     59  54  84 NE5         N/A
$$

...SOME OBSERVATIONS FROM AROUND THE REGION...

CITY           SKY/WX    TMP DP  RH WIND       PRES   REMARKS
DENVER         CLOUDY    49  42  77 N12       29.88S
LARAMIE        CLOUDY    46  35  65 NW14      29.98R
CHEYENNE       CLOUDY    50  37  61 N17G25    29.93R
SCOTTSBLUFF    CLOUDY    56  44  64 N12       29.87R
RAPID CITY     MOSUNNY   58  45  62 N10       29.85S
BISMARCK       SUNNY     61  52  72 N9        29.84S
PIERRE         CLOUDY    61  51  70 N12       29.77R
SIOUX FALLS    LGT RAIN  63  58  83 SW5       29.79R
OMAHA          PTSUNNY   68  60  75 NE8       29.76S
GRAND ISLAND   CLOUDY    64  56  75 E7        29.77S
KANSAS CITY    CLOUDY    67  62  84 SW12      29.74R
WICHITA        CLOUDY    68  63  84 SE14      29.70S
OKLAHOMA CITY  CLOUDY    71  62  73 S7        29.68R
DALLAS         LGT RAIN  68  65  90 SE12      29.81R
AMARILLO       SUNNY     61  42  49 NW12      29.80F
DODGE CITY     CLOUDY    55  54  96 W12       29.71S
HAYS           CLOUDY    34 N/A N/A SE9       29.72R WCI  26
GOODLAND       PTSUNNY   56  52  86 NE12      29.73S
$$




USA.gov is the U.S. government's official web portal to all federal, state and local government web resources and services.